TimeCST,TemperatureF,Dew PointF,Humidity,Sea Level PressureIn,VisibilityMPH,Wind Direction,Wind SpeedMPH,Gust SpeedMPH,PrecipitationIn,Events,Conditions,WindDirDegrees,DateUTC
12:15 AM,-23.1,-28.3,77,30.56,10.0,Calm,Calm,-,N/A,,Clear,0,2013-01-24 06:15:00
12:35 AM,-22.9,-28.3,76,30.56,10.0,Calm,Calm,-,N/A,,Clear,0,2013-01-24 06:35:00
12:55 AM,-22.7,-27.9,77,30.56,10.0,Calm,Calm,-,N/A,,Clear,0,2013-01-24 06:55:00
1:15 AM,-22.0,-27.4,76,30.56,10.0,Calm,Calm,-,N/A,,Clear,0,2013-01-24 07:15:00
1:35 AM,-22.7,-28.1,76,30.55,10.0,Calm,Calm,-,N/A,,Clear,0,2013-01-24 07:35:00
1:55 AM,-23.3,-28.5,77,30.55,10.0,Calm,Calm,-,N/A,,Clear,0,2013-01-24 07:55:00
2:15 AM,-23.1,-28.5,76,30.56,10.0,Calm,Calm,-,N/A,,Clear,0,2013-01-24 08:15:00
2:35 AM,-21.6,-27.0,76,30.56,10.0,Calm,Calm,-,N/A,,Clear,0,2013-01-24 08:35:00
2:55 AM,-20.4,-25.8,76,30.57,10.0,Calm,Calm,-,N/A,,Clear,0,2013-01-24 08:55:00
3:15 AM,-20.4,-26.0,75,30.56,10.0,Calm,Calm,-,N/A,,Clear,0,2013-01-24 09:15:00
3:35 AM,-21.1,-26.7,75,30.56,10.0,Calm,Calm,-,N/A,,Clear,0,2013-01-24 09:35:00
3:55 AM,-20.6,-26.1,75,30.55,10.0,Calm,Calm,-,N/A,,Clear,0,2013-01-24 09:55:00
4:15 AM,-20.4,-26.1,75,30.55,10.0,Calm,Calm,-,N/A,,Clear,0,2013-01-24 10:15:00
4:55 AM,-19.7,-25.1,76,30.55,10.0,Calm,Calm,-,N/A,,Clear,0,2013-01-24 10:55:00
5:15 AM,-19.3,-24.7,76,30.55,10.0,Calm,Calm,-,N/A,,Clear,0,2013-01-24 11:15:00
5:35 AM,-19.1,-24.7,76,30.55,10.0,Calm,Calm,-,N/A,,Clear,0,2013-01-24 11:35:00
5:55 AM,-17.9,-23.4,76,30.55,10.0,ESE,3.5,-,N/A,,Clear,120,2013-01-24 11:55:00
6:15 AM,-16.6,-22.4,75,30.54,10.0,SE,6.9,-,N/A,,Clear,140,2013-01-24 12:15:00
6:35 AM,-16.2,-22.2,74,30.55,10.0,SSE,5.8,-,N/A,,Clear,150,2013-01-24 12:35:00
6:55 AM,-16.1,-22.0,74,30.56,10.0,South,5.8,-,N/A,,Clear,170,2013-01-24 12:55:00
7:15 AM,-15.9,-21.8,74,30.54,10.0,SSE,5.8,-,N/A,,Clear,160,2013-01-24 13:15:00
7:35 AM,-15.3,-21.1,75,30.53,10.0,SSE,6.9,-,N/A,,Clear,160,2013-01-24 13:35:00
7:55 AM,-15.0,-20.9,75,30.52,10.0,SSE,6.9,-,N/A,,Scattered Clouds,160,2013-01-24 13:55:00
8:15 AM,-14.6,-20.6,75,30.50,10.0,SE,6.9,-,N/A,,Scattered Clouds,140,2013-01-24 14:15:00
8:35 AM,-14.1,-20.2,74,30.48,10.0,SE,8.1,-,N/A,,Mostly Cloudy,130,2013-01-24 14:35:00
8:55 AM,-13.9,-19.8,75,30.47,10.0,SE,8.1,-,N/A,,Overcast,140,2013-01-24 14:55:00
9:15 AM,-13.4,-19.5,74,30.47,10.0,SE,8.1,-,N/A,,Mostly Cloudy,140,2013-01-24 15:15:00
9:35 AM,-12.8,-19.3,73,30.48,10.0,SSE,9.2,-,N/A,,Scattered Clouds,150,2013-01-24 15:35:00
9:55 AM,-11.9,-19.1,70,30.46,10.0,SSE,9.2,-,N/A,,Mostly Cloudy,150,2013-01-24 15:55:00
10:15 AM,-11.0,-18.6,69,30.45,10.0,SE,10.4,-,N/A,,Mostly Cloudy,130,2013-01-24 16:15:00
10:35 AM,-10.7,-18.8,67,30.46,10.0,SSE,11.5,-,N/A,,Scattered Clouds,150,2013-01-24 16:35:00
10:55 AM,-9.9,-18.2,67,30.46,10.0,SSE,9.2,-,N/A,,Mostly Cloudy,160,2013-01-24 16:55:00
11:15 AM,-9.0,-18.0,65,30.44,10.0,SSE,9.2,-,N/A,,Overcast,150,2013-01-24 17:15:00
11:35 AM,-8.3,-17.5,64,30.42,10.0,SE,10.4,-,N/A,,Mostly Cloudy,140,2013-01-24 17:35:00
11:55 AM,-7.8,-17.5,63,30.40,10.0,SE,15.0,-,N/A,,Overcast,140,2013-01-24 17:55:00
12:15 PM,-6.9,-17.1,61,30.39,10.0,SSE,12.7,-,N/A,,Overcast,150,2013-01-24 18:15:00
12:35 PM,-6.3,-17.1,60,30.38,10.0,SSE,11.5,-,N/A,,Overcast,150,2013-01-24 18:35:00
12:55 PM,-5.8,-16.8,59,30.37,10.0,SE,11.5,-,N/A,,Overcast,130,2013-01-24 18:55:00
1:15 PM,-5.4,-16.1,60,30.37,10.0,SE,8.1,-,N/A,,Overcast,140,2013-01-24 19:15:00
1:35 PM,-4.9,-15.9,59,30.35,10.0,SE,10.4,-,N/A,,Overcast,140,2013-01-24 19:35:00
1:55 PM,-4.4,-15.7,58,30.33,10.0,SE,9.2,-,N/A,,Overcast,130,2013-01-24 19:55:00
2:15 PM,-4.0,-15.7,57,30.32,10.0,SE,12.7,-,N/A,,Overcast,140,2013-01-24 20:15:00
2:35 PM,-3.8,-15.5,57,30.29,10.0,SE,13.8,-,N/A,,Overcast,140,2013-01-24 20:35:00
2:55 PM,-3.5,-15.2,57,30.27,10.0,SE,13.8,-,N/A,,Overcast,130,2013-01-24 20:55:00
3:15 PM,-3.3,-14.6,58,30.26,10.0,SE,11.5,-,N/A,,Overcast,140,2013-01-24 21:15:00
3:35 PM,-2.9,-14.1,59,30.26,10.0,SE,12.7,-,N/A,,Overcast,140,2013-01-24 21:35:00
3:55 PM,-2.6,-14.1,58,30.25,10.0,SSE,12.7,-,N/A,,Overcast,150,2013-01-24 21:55:00
4:15 PM,-2.2,-13.9,58,30.22,10.0,SE,12.7,-,N/A,,Overcast,140,2013-01-24 22:15:00
4:35 PM,-2.0,-13.5,58,30.20,10.0,SSE,11.5,-,N/A,,Overcast,150,2013-01-24 22:35:00
4:55 PM,-1.7,-13.2,58,30.19,7.0,SSE,12.7,-,N/A,,Overcast,150,2013-01-24 22:55:00
5:15 PM,-1.7,-10.8,65,30.18,1.2,SE,11.5,16.1,N/A,Snow,Light Snow,140,2013-01-24 23:15:00
5:35 PM,-1.8,-8.3,74,30.17,1.0,SE,12.7,18.4,N/A,Snow,Light Snow,140,2013-01-24 23:35:00
5:55 PM,-1.8,-7.4,77,30.15,2.0,SE,12.7,-,N/A,Snow,Light Snow,140,2013-01-24 23:55:00
6:15 PM,-1.7,-6.9,78,30.12,1.8,SE,15.0,-,N/A,Snow,Light Snow,140,2013-01-25 00:15:00
6:35 PM,-1.5,-6.5,79,30.10,3.0,SE,13.8,-,N/A,Snow,Light Snow,140,2013-01-25 00:35:00
6:55 PM,-0.9,-6.0,79,30.10,10.0,SSE,15.0,-,N/A,,Overcast,150,2013-01-25 00:55:00
7:15 PM,-0.2,-6.2,76,30.11,10.0,SSE,11.5,16.1,N/A,,Overcast,160,2013-01-25 01:15:00
7:35 PM,0.3,-6.2,74,30.09,10.0,SSE,11.5,-,N/A,,Overcast,150,2013-01-25 01:35:00
7:55 PM,0.7,-6.2,73,30.09,10.0,SSE,12.7,-,N/A,,Overcast,150,2013-01-25 01:55:00
8:15 PM,1.2,-6.5,70,30.10,10.0,South,10.4,-,N/A,,Overcast,170,2013-01-25 02:15:00
8:35 PM,1.6,-6.7,68,30.08,10.0,South,9.2,-,N/A,,Overcast,170,2013-01-25 02:35:00
8:55 PM,1.9,-6.5,68,30.06,10.0,SSE,11.5,-,N/A,,Overcast,160,2013-01-25 02:55:00
9:15 PM,2.1,-6.5,67,30.05,10.0,South,10.4,-,N/A,,Overcast,170,2013-01-25 03:15:00
9:35 PM,2.5,-6.5,66,30.04,10.0,SSE,13.8,-,N/A,Snow,Light Snow,160,2013-01-25 03:35:00
9:55 PM,2.7,-5.6,68,30.03,10.0,SSE,9.2,-,N/A,Snow,Light Snow,160,2013-01-25 03:55:00
10:15 PM,2.8,-5.4,68,30.03,10.0,SSE,9.2,-,N/A,,Overcast,160,2013-01-25 04:15:00
10:35 PM,3.2,-5.4,67,30.02,10.0,South,10.4,-,N/A,Snow,Light Snow,170,2013-01-25 04:35:00
10:55 PM,3.6,-4.7,68,30.00,7.0,South,15.0,20.7,N/A,Snow,Light Snow,180,2013-01-25 04:55:00
11:15 PM,3.6,-3.5,73,29.99,7.0,South,10.4,16.1,N/A,,Overcast,170,2013-01-25 05:15:00
11:35 PM,3.2,-2.9,76,29.98,7.0,South,11.5,17.3,N/A,Snow,Light Snow,170,2013-01-25 05:35:00
11:55 PM,3.2,-2.6,77,29.96,10.0,South,10.4,-,N/A,,Overcast,170,2013-01-25 05:55:00